EW7717 Weather Reports


time (UTC)temp
C
wind
direction
speed
KPH
gust
KPH
rain 1hr
cm
rain 24hr
cm
rain mn
cm
humidity
%
barometer
mb
20260906214832 32 188 4.8 24.1 0.00 0.00 0.00 35 1018.9
20260906214555 32 116 4.8 24.1 0.00 0.00 0.00 33 1019.0
20260906213820 32 127 4.8 14.5 0.00 0.00 0.00 37 1019.1
20260906213314 32 132 3.2 14.5 0.00 0.00 0.00 34 1019.3
20260906213034 32 113 3.2 9.7 0.00 0.00 0.00 34 1019.1
20260906212306 31 188 4.8 12.9 0.00 0.00 0.00 37 1019.3
20260906211756 32 93 3.2 12.9 0.00 0.00 0.00 33 1019.3
20260906211250 32 107 3.2 9.7 0.00 0.00 0.00 34 1019.4
20260906210745 32 137 3.2 11.3 0.00 0.00 0.00 34 1019.4
20260906210459 31 163 3.2 14.5 0.00 0.00 0.00 34 1019.5
20260906205732 31 182 3.2 14.5 0.00 0.00 0.00 35 1019.5
20260906205226 31 172 3.2 11.3 0.00 0.00 0.00 37 1019.6
20260906204720 31 134 4.8 17.7 0.00 0.00 0.00 38 1019.6
20260906204214 31 167 4.8 17.7 0.00 0.00 0.00 37 1019.7
20260906203708 31 174 4.8 16.1 0.00 0.00 0.00 41 1019.9
20260906203430 31 215 6.4 16.1 0.00 0.00 0.00 36 1019.9
20260906202656 31 199 4.8 14.5 0.00 0.00 0.00 38 1020.0
20260906202150 31 204 4.8 12.9 0.00 0.00 0.00 38 1020.0
20260906201644 31 209 3.2 12.9 0.00 0.00 0.00 36 1020.1
20260906201138 31 101 4.8 14.5 0.00 0.00 0.00 41 1020.1
20260906200852 30 83 6.4 14.5 0.00 0.00 0.00 39 1020.1
20260906200349 30 180 4.8 14.5 0.00 0.00 0.00 37 1020.1
20260906195621 31 190 3.2 9.7 0.00 0.00 0.00 38 1020.2
20260906195334 31 151 3.2 6.4 0.00 0.00 0.00 39 1020.2
20260906194608 30 143 3.2 12.9 0.00 0.00 0.00 37 1020.3
20260906194328 30 138 4.8 12.9 0.00 0.00 0.00 36 1020.5
20260906193556 30 192 4.8 12.9 0.00 0.00 0.00 37 1020.5
20260906193315 30 194 3.2 11.3 0.00 0.00 0.00 34 1020.6
20260906192544 30 105 3.2 9.7 0.00 0.00 0.00 36 1020.6
20260906192039 30 135 3.2 12.9 0.00 0.00 0.00 41 1020.6
20260906191533 30 234 4.8 16.1 0.00 0.00 0.00 37 1020.7
20260906191026 30 222 3.2 11.3 0.00 0.00 0.00 34 1020.8
20260906190520 30 205 3.2 9.7 0.00 0.00 0.00 35 1020.8
20260906190236 31 185 3.2 9.7 0.00 0.00 0.00 35 1021.1
20260906185508 31 87 3.2 9.7 0.00 0.00 0.00 39 1021.2
20260906185002 30 180 3.2 8.0 0.00 0.00 0.00 39 1021.2
20260906184457 30 171 3.2 8.0 0.00 0.00 0.00 36 1021.3
20260906183444 30 115 3.2 11.3 0.00 0.00 0.00 37 1021.5
20260906182939 30 102 1.6 9.7 0.00 0.00 0.00 41 1021.7
20260906182433 30 130 1.6 8.0 0.00 0.00 0.00 39 1021.8
20260906182146 29 71 3.2 8.0 0.00 0.00 0.00 40 1021.8
20260906181420 29 90 3.2 11.3 0.00 0.00 0.00 38 1021.9
20260906180914 29 105 3.2 11.3 0.00 0.00 0.00 38 1022.0
20260906180408 29 197 3.2 9.7 0.00 0.00 0.00 39 1022.0
20260906175902 29 101 1.6 6.4 0.00 0.00 0.00 37 1022.1
20260906175356 29 107 1.6 6.4 0.00 0.00 0.00 38 1022.4
20260906175111 28 180 3.2 6.4 0.00 0.00 0.00 42 1022.3
20260906174344 28 106 1.6 9.7 0.00 0.00 0.00 42 1022.4
20260906174333 28 95 1.6 9.7 0.00 0.00 0.00 43 1022.5
20260906173345 28 203 3.2 12.9 0.00 0.00 0.00 44 1022.5
20260906172846 28 222 1.6 12.9 0.00 0.00 0.00 39 1022.6
20260906172346 28 105 1.6 8.0 0.00 0.00 0.00 43 1022.7
20260906171845 27 105 1.6 8.0 0.00 0.00 0.00 44 1022.7
20260906171347 27 165 1.6 6.4 0.00 0.00 0.00 40 1022.7
20260906170846 27 142 1.6 4.8 0.00 0.00 0.00 45 1022.9
20260906170346 27 152 1.6 6.4 0.00 0.00 0.00 44 1022.9
20260906170339 26 214 3.2 6.4 0.00 0.00 0.00 43 1022.9
20260906165347 27 199 3.2 9.7 0.00 0.00 0.00 41 1022.9
20260906164841 27 198 3.2 9.7 0.00 0.00 0.00 42 1023.0
20260906164826 27 156 1.6 4.8 0.00 0.00 0.00 39 1023.0
20260906163841 26 157 1.6 8.0 0.00 0.00 0.00 42 1023.0
20260906163341 26 170 1.6 8.0 0.00 0.00 0.00 41 1023.0
20260906162842 26 200 1.6 6.4 0.00 0.00 0.00 40 1023.0
20260906162340 26 193 1.6 8.0 0.00 0.00 0.00 42 1023.0
20260906161841 26 197 1.6 8.0 0.00 0.00 0.00 39 1023.0
20260906161342 25 135 1.6 4.8 0.00 0.00 0.00 42 1023.0
20260906161103 25 134 0.0 3.2 0.00 0.00 0.00 46 1023.0
20260906160336 24 135 0.0 3.2 0.00 0.00 0.00 48 1023.0
20260906155836 24 135 1.6 4.8 0.00 0.00 0.00 49 1023.0
20260906155339 23 134 0.0 4.8 0.00 0.00 0.00 48 1022.9
20260906155329 23 155 1.6 6.4 0.00 0.00 0.00 48 1022.9
20260906154338 23 156 1.6 6.4 0.00 0.00 0.00 48 1022.9
20260906153837 23 163 1.6 6.4 0.00 0.00 0.00 51 1022.9
20260906153338 23 121 1.6 3.2 0.00 0.00 0.00 49 1022.9
20260906152837 23 117 0.0 4.8 0.00 0.00 0.00 51 1022.7
20260906152338 22 114 0.0 4.8 0.00 0.00 0.00 50 1022.7
20260906151834 22 113 1.6 4.8 0.00 0.00 0.00 52 1022.9
20260906151333 22 132 1.6 3.2 0.00 0.00 0.00 53 1022.7
20260906150829 22 135 0.0 3.2 0.00 0.00 0.00 53 1022.7
20260906150331 22 134 1.6 3.2 0.00 0.00 0.00 55 1022.7
20260906145829 21 134 1.6 3.2 0.00 0.00 0.00 55 1022.6
20260906145329 21 135 0.0 1.6 0.00 0.00 0.00 56 1022.6
20260906145314 21 135 0.0 1.6 0.00 0.00 0.00 57 1022.5
20260906144326 20 135 0.0 0.0 0.00 0.00 0.00 58 1022.5
20260906143823 20 135 0.0 1.6 0.00 0.00 0.00 58 1022.5
20260906143323 20 135 0.0 1.6 0.00 0.00 0.00 61 1022.6
20260906142822 20 135 0.0 1.6 0.00 0.00 0.00 60 1022.5
20260906142323 19 135 0.0 3.2 0.00 0.00 0.00 60 1022.5
20260906141824 18 135 0.0 3.2 0.00 0.00 0.00 63 1022.5
20260906141641 18 108 0.0 1.6 0.00 0.00 0.00 64 1022.5
20260906141553 18 108 0.0 3.2 0.00 0.00 0.00 68 1022.5
20260906140323 17 108 0.0 3.2 0.00 0.00 0.00 71 1022.5
20260906135822 17 98 0.0 0.0 0.00 0.00 0.00 71 1022.4
20260906135317 16 98 0.0 1.6 0.00 0.00 0.00 74 1022.4
20260906134811 16 98 0.0 1.6 0.00 0.00 0.00 75 1022.3
20260906134306 16 97 0.0 0.0 0.00 0.00 0.00 77 1022.3
20260906133758 15 97 0.0 0.0 0.00 0.00 0.00 78 1022.1
20260906133517 15 97 0.0 0.0 0.00 0.00 0.00 78 1022.1
20260906133018 15 97 0.0 0.0 0.00 0.00 0.00 78 1022.0
20260906132241 15 97 0.0 0.0 0.00 0.00 0.00 79 1022.0
20260906131735 15 97 0.0 0.0 0.00 0.00 0.00 77 1022.0
20260906131228 15 97 0.0 1.6 0.00 0.00 0.00 77 1022.0
20260906130722 15 97 0.0 1.6 0.00 0.00 0.00 77 1022.0
20260906130216 15 331 0.0 0.0 0.00 0.00 0.00 76 1021.9
20260906125708 14 331 0.0 0.0 0.00 0.00 0.00 76 1022.0
20260906125203 14 331 0.0 0.0 0.00 0.00 0.00 76 1022.0
20260906124657 14 331 0.0 0.0 0.00 0.00 0.00 76 1022.0
20260906124643 14 331 0.0 0.0 0.00 0.00 0.00 75 1022.1
20260906123645 14 331 0.0 1.6 0.00 0.00 0.00 75 1022.1
20260906123138 14 331 0.0 1.6 0.00 0.00 0.00 76 1022.1
20260906122855 14 331 0.0 3.2 0.00 0.00 0.00 76 1022.1
20260906122126 14 331 0.0 3.2 0.00 0.00 0.00 77 1022.0
20260906121621 14 355 0.0 0.0 0.00 0.00 0.00 77 1022.0
20260906121115 14 351 0.0 0.0 0.00 0.00 0.00 76 1022.0
20260906120609 14 355 0.0 0.0 0.00 0.00 0.00 75 1021.9
20260906115556 15 351 0.0 0.0 0.00 0.00 0.00 74 1021.8
20260906115051 15 351 0.0 0.0 0.00 0.00 0.00 74 1021.8
20260906114545 15 355 0.0 0.0 0.00 0.00 0.00 73 1021.8
20260906114039 15 355 0.0 1.6 0.00 0.00 0.00 73 1021.8
20260906113754 15 351 0.0 1.6 0.00 0.00 0.00 73 1021.8
20260906113028 15 351 0.0 0.0 0.00 0.00 0.00 72 1021.8
20260906112521 15 355 0.0 0.0 0.00 0.00 0.00 72 1021.7
20260906112014 15 355 0.0 0.0 0.00 0.00 0.00 72 1021.5
20260906111508 15 351 0.0 0.0 0.00 0.00 0.00 72 1021.5
20260906111002 16 351 0.0 0.0 0.00 0.00 0.00 71 1021.4
20260906110718 16 351 0.0 3.2 0.00 0.00 0.00 71 1021.4
20260906105951 16 351 0.0 3.2 0.00 0.00 0.00 71 1021.3
20260906105445 16 355 0.0 1.6 0.00 0.00 0.00 70 1021.3
20260906104938 16 355 0.0 0.0 0.00 0.00 0.00 69 1021.4
20260906104433 16 355 0.0 0.0 0.00 0.00 0.00 68 1021.3
20260906103928 17 355 0.0 0.0 0.00 0.00 0.00 67 1021.3
20260906103421 17 355 0.0 0.0 0.00 0.00 0.00 67 1021.3
20260906102914 17 355 0.0 0.0 0.00 0.00 0.00 67 1021.3
20260906102409 17 355 0.0 0.0 0.00 0.00 0.00 67 1021.3
20260906101903 17 355 0.0 0.0 0.00 0.00 0.00 68 1021.4
20260906101357 17 355 0.0 0.0 0.00 0.00 0.00 69 1021.4
20260906100850 17 355 0.0 0.0 0.00 0.00 0.00 68 1021.7
20260906100344 17 355 0.0 0.0 0.00 0.00 0.00 68 1021.8
20260906095838 17 355 0.0 0.0 0.00 0.00 0.00 69 1021.8
20260906095333 17 355 0.0 0.0 0.00 0.00 0.00 68 1021.9
20260906094826 17 355 0.0 0.0 0.00 0.00 0.00 68 1022.0
20260906094321 17 355 0.0 0.0 0.00 0.00 0.00 68 1021.9
20260906093814 17 355 0.0 0.0 0.00 0.00 0.00 67 1021.9
20260906093309 17 355 0.0 0.0 0.00 0.00 0.00 67 1022.0
20260906092803 17 355 0.0 0.0 0.00 0.00 0.00 67 1021.8
20260906092257 17 355 0.0 3.2 0.00 0.00 0.00 67 1021.8
20260906091750 17 355 0.0 3.2 0.00 0.00 0.00 67 1021.7
20260906091245 17 351 0.0 0.0 0.00 0.00 0.00 68 1021.5
20260906090739 17 351 0.0 0.0 0.00 0.00 0.00 69 1021.5
20260906090233 17 351 0.0 0.0 0.00 0.00 0.00 69 1021.4
20260906085726 17 351 0.0 0.0 0.00 0.00 0.00 69 1021.4
20260906085449 17 351 0.0 0.0 0.00 0.00 0.00 68 1021.4
20260906084714 17 351 0.0 0.0 0.00 0.00 0.00 67 1021.3
20260906084208 17 351 0.0 0.0 0.00 0.00 0.00 68 1021.3
20260906083703 17 351 0.0 0.0 0.00 0.00 0.00 67 1021.3
20260906082656 17 351 0.0 0.0 0.00 0.00 0.00 67 1021.4
20260906082152 17 351 0.0 0.0 0.00 0.00 0.00 67 1021.3
20260906081652 17 351 0.0 0.0 0.00 0.00 0.00 67 1021.3
20260906081153 17 351 0.0 0.0 0.00 0.00 0.00 68 1021.3
20260906080650 17 351 0.0 1.6 0.00 0.00 0.00 69 1021.4
20260906080151 17 351 0.0 1.6 0.00 0.00 0.00 69 1021.4
20260906075651 17 351 0.0 1.6 0.00 0.00 0.00 70 1021.5
20260906075150 17 351 0.0 0.0 0.00 0.00 0.00 71 1021.5
20260906074651 17 351 0.0 0.0 0.00 0.00 0.00 72 1021.5
20260906074150 17 351 0.0 0.0 0.00 0.00 0.00 71 1021.7
20260906073652 17 351 0.0 3.2 0.00 0.00 0.00 72 1021.5
20260906073151 17 351 0.0 3.2 0.00 0.00 0.00 72 1021.5
20260906072650 17 348 0.0 0.0 0.00 0.00 0.00 74 1021.5
20260906072149 17 348 0.0 0.0 0.00 0.00 0.00 76 1021.5
20260906071650 17 348 0.0 0.0 0.00 0.00 0.00 75 1021.5
20260906071150 17 348 0.0 0.0 0.00 0.00 0.00 76 1021.7
20260906071140 17 348 0.0 0.0 0.00 0.00 0.00 75 1021.7
20260906070149 17 348 0.0 0.0 0.00 0.00 0.00 75 1021.7
20260906065650 17 348 0.0 0.0 0.00 0.00 0.00 75 1021.7
20260906065149 17 348 0.0 0.0 0.00 0.00 0.00 75 1021.7
20260906064651 17 348 0.0 0.0 0.00 0.00 0.00 75 1021.8
20260906064150 17 348 0.0 0.0 0.00 0.00 0.00 75 1021.9
20260906063651 17 348 0.0 0.0 0.00 0.00 0.00 74 1021.9
20260906063627 17 348 0.0 0.0 0.00 0.00 0.00 74 1021.9
20260906062651 17 348 0.0 0.0 0.00 0.00 0.00 73 1022.0
20260906062151 17 348 0.0 0.0 0.00 0.00 0.00 73 1021.9
20260906061651 17 348 0.0 0.0 0.00 0.00 0.00 73 1021.8
20260906061149 17 348 0.0 0.0 0.00 0.00 0.00 73 1021.7
20260906060651 17 348 0.0 0.0 0.00 0.00 0.00 73 1021.7
20260906060146 17 348 0.0 0.0 0.00 0.00 0.00 73 1021.8
20260906055639 17 348 0.0 0.0 0.00 0.00 0.00 73 1021.9
20260906055134 17 348 0.0 0.0 0.00 0.00 0.00 73 1021.9
20260906054626 17 348 0.0 0.0 0.00 0.00 0.00 73 1021.8
20260906054121 18 348 0.0 0.0 0.00 0.00 0.00 72 1021.8
20260906053615 18 348 0.0 0.0 0.00 0.00 0.00 71 1021.7
20260906053108 18 348 0.0 0.0 0.00 0.00 0.00 71 1021.5
20260906052604 18 348 0.0 0.0 0.00 0.00 0.00 70 1021.7
20260906052056 18 348 0.0 0.0 0.00 0.00 0.00 69 1021.7
20260906051551 18 348 0.0 0.0 0.00 0.00 0.00 69 1021.7
20260906051313 18 348 0.0 1.6 0.00 0.00 0.00 69 1021.5
20260906050538 19 348 0.0 1.6 0.00 0.00 0.00 68 1021.5
20260906050258 19 348 0.0 0.0 0.00 0.00 0.00 68 1021.7
20260906045747 19 348 0.0 0.0 0.00 0.00 0.00 67 1021.5
20260906045021 19 348 0.0 1.6 0.00 0.00 0.00 67 1021.5
20260906044514 19 348 0.0 1.6 0.00 0.00 0.00 66 1021.7
20260906044235 19 349 0.0 0.0 0.00 0.00 0.00 66 1021.8
20260906043502 19 349 0.0 0.0 0.00 0.00 0.00 65 1021.8
20260906042957 20 349 0.0 0.0 0.00 0.00 0.00 65 1021.8
20260906042451 20 349 0.0 0.0 0.00 0.00 0.00 64 1021.8
20260906041945 20 349 0.0 0.0 0.00 0.00 0.00 63 1021.8
20260906041439 20 349 0.0 0.0 0.00 0.00 0.00 61 1021.8
20260906041159 20 349 0.0 1.6 0.00 0.00 0.00 60 1021.8
20260906040639 20 349 0.0 1.6 0.00 0.00 0.00 60 1021.8
20260906040144 20 349 0.0 0.0 0.00 0.00 0.00 60 1021.8
20260906035411 21 349 0.0 1.6 0.00 0.00 0.00 58 1021.8
20260906035126 21 349 0.0 1.6 0.00 0.00 0.00 58 1021.9
20260906034359 21 349 0.0 0.0 0.00 0.00 0.00 57 1021.9
20260906033852 21 349 0.0 0.0 0.00 0.00 0.00 56 1021.9
20260906033347 21 349 0.0 4.8 0.00 0.00 0.00 54 1021.9
20260906032840 22 349 1.6 4.8 0.00 0.00 0.00 54 1021.7
20260906032337 21 235 1.6 4.8 0.00 0.00 0.00 54 1021.7
20260906031837 21 235 1.6 4.8 0.00 0.00 0.00 53 1021.5
20260906031336 21 234 1.6 4.8 0.00 0.00 0.00 53 1021.5
20260906030833 21 241 1.6 4.8 0.00 0.00 0.00 51 1021.4
20260906030330 21 241 0.0 4.8 0.00 0.00 0.00 52 1021.4
20260906030321 21 241 0.0 3.2 0.00 0.00 0.00 51 1021.2
20260906025326 21 240 0.0 3.2 0.00 0.00 0.00 50 1021.2
20260906024826 21 240 0.0 3.2 0.00 0.00 0.00 49 1021.1
20260906024325 21 240 0.0 3.2 0.00 0.00 0.00 49 1021.1
20260906024312 21 240 1.6 4.8 0.00 0.00 0.00 50 1021.1
20260906023322 21 240 1.6 4.8 0.00 0.00 0.00 51 1020.9
20260906023040 21 240 0.0 1.6 0.00 0.00 0.00 51 1020.8
20260906022323 21 240 0.0 1.6 0.00 0.00 0.00 49 1020.7
20260906021821 21 240 0.0 1.6 0.00 0.00 0.00 49 1020.6
20260906021320 22 240 0.0 1.6 0.00 0.00 0.00 48 1020.3
20260906020817 22 240 0.0 3.2 0.00 0.00 0.00 47 1020.0
20260906020315 22 240 0.0 3.2 0.00 0.00 0.00 47 1019.9
20260906015813 22 240 0.0 3.2 0.00 0.00 0.00 46 1020.0
20260906015309 22 240 0.0 3.2 0.00 0.00 0.00 47 1019.9
20260906014808 23 240 0.0 1.6 0.00 0.00 0.00 45 1019.7
20260906014306 23 240 0.0 1.6 0.00 0.00 0.00 45 1019.7
20260906013807 23 240 0.0 0.0 0.00 0.00 0.00 44 1019.7
20260906013300 23 240 0.0 0.0 0.00 0.00 0.00 43 1019.7
20260906012755 24 240 0.0 0.0 0.00 0.00 0.00 44 1019.6
20260906012735 25 240 0.0 0.0 0.00 0.00 0.00 44 1019.7
20260906011743 25 234 0.0 0.0 0.00 0.00 0.00 44 1019.7
20260906011237 26 234 0.0 0.0 0.00 0.00 0.00 44 1019.7
20260906010732 26 234 0.0 3.2 0.00 0.00 0.00 41 1019.6
20260906010232 26 234 0.0 3.2 0.00 0.00 0.00 42 1019.7
20260906005732 27 234 0.0 1.6 0.00 0.00 0.00 38 1019.7
20260906005233 27 234 0.0 3.2 0.00 0.00 0.00 36 1019.9
20260906004732 28 234 0.0 3.2 0.00 0.00 0.00 40 1020.0
20260906004457 28 234 1.6 4.8 0.00 0.00 0.00 38 1020.0
20260906003733 28 234 0.0 4.8 0.00 0.00 0.00 38 1020.0
20260906003231 29 234 0.0 1.6 0.00 0.00 0.00 37 1020.0
20260906002732 29 234 0.0 0.0 0.00 0.00 0.00 34 1019.9
20260906002232 29 234 0.0 1.6 0.00 0.00 0.00 32 1019.9
20260906001733 30 234 0.0 1.6 0.00 0.00 0.00 31 1019.9
20260906001229 30 234 0.0 1.6 0.00 0.00 0.00 30 1019.9
20260906000729 30 234 0.0 3.2 0.00 0.00 0.00 30 1019.9
20260906000229 30 234 0.0 3.2 0.00 0.00 0.00 29 1019.7
20260905235730 30 234 0.0 3.2 0.00 0.00 0.00 28 1019.9
20260905235455 30 234 0.0 4.8 0.00 0.00 0.00 29 1019.9
20260905234954 30 234 0.0 4.8 0.00 0.00 0.00 27 1019.9
20260905234229 31 234 1.6 4.8 0.00 0.00 0.00 27 1019.9
20260905233729 31 196 1.6 4.8 0.00 0.00 0.00 27 1019.7
20260905233456 30 195 1.6 4.8 0.00 0.00 0.00 28 1019.7
20260905232725 30 200 1.6 8.0 0.00 0.00 0.00 27 1019.9
20260905232224 30 206 1.6 8.0 0.00 0.00 0.00 29 1019.9
20260905231725 30 221 1.6 4.8 0.00 0.00 0.00 29 1019.9
20260905231224 30 188 1.6 4.8 0.00 0.00 0.00 30 1019.9
20260905230724 30 188 1.6 4.8 0.00 0.00 0.00 30 1019.9
20260905230222 30 198 1.6 3.2 0.00 0.00 0.00 31 1019.9
20260905225942 30 198 1.6 4.8 0.00 0.00 0.00 31 1019.9
20260905225222 30 198 1.6 4.8 0.00 0.00 0.00 32 1019.9
20260905224723 30 198 0.0 3.2 0.00 0.00 0.00 31 1020.0
20260905224443 30 198 0.0 3.2 0.00 0.00 0.00 33 1020.0
20260905223722 30 198 0.0 3.2 0.00 0.00 0.00 30 1020.0
20260905223222 30 198 0.0 3.2 0.00 0.00 0.00 30 1020.1
20260905222716 30 200 0.0 6.4 0.00 0.00 0.00 30 1020.1
20260905222210 31 200 1.6 6.4 0.00 0.00 0.00 28 1020.0
20260905221924 31 280 1.6 8.0 0.00 0.00 0.00 30 1020.0
20260905221157 31 126 3.2 8.0 0.00 0.00 0.00 30 1020.1
20260905220652 31 109 3.2 8.0 0.00 0.00 0.00 31 1020.1
20260905220145 30 199 3.2 9.7 0.00 0.00 0.00 35 1020.2
20260905215640 30 192 3.2 9.7 0.00 0.00 0.00 36 1020.2